• Join FlightAware (Why Join?)
  • Login
  • US Flag GB Flag 
04:47 EDT


 

Airport Tracker/Info


-or-


 

Live Flight TrackerFlight Track Log ✈ N1926A ✈ 19-Jul-2013 ✈ 41A - KECP

Flight Track Log - Related Links

Times and Time Zones

All times are in EDT time to prevent confusion due to time zone crossing. See the N1926A flight status page for this flight to view local times or setup timezone preferences in your user account.

Time Position Orientation Groundspeed Altitude Reporting Facility
EDT Latitude Longitude Course Direction KTS MPH feet Rate Location/Type
16:10 32.4075 -85.8544 180° South 134 154 6,600  Level Atlanta Center
16:11 32.3719 -85.8489 172° South 134 154 8,900 1,680 Climbing Atlanta Center
16:12 32.3283 -85.8431 174° South 119 137 10,000 1,380 Climbing Atlanta Center
16:13 32.2742 -85.8347 173° South 163 188 11,700 1,560 Climbing Atlanta Center
16:14 32.2158 -85.8261 173° South 193 222 13,200 1,440 Climbing Atlanta Center
16:15 32.1572 -85.8322 185° South 206 237 14,600 1,380 Climbing Atlanta Center
16:16 32.1634 -85.8628 180° South  Level Estimated
16:16 32.1008 -85.8361 183° South 212 244 16,000  Level Atlanta Center
16:17 32.0422 -85.8472 189° South 217 250 17,000 780 Climbing Atlanta Center
16:18 31.9775 -85.8483 181° South 223 257 17,600 360 Climbing Atlanta Center
16:19 31.9044 -85.8517 182° South 243 280 17,800 60 Climbing Atlanta Center
16:20 31.8292 -85.8625 187° South 258 297 17,800  Level Atlanta Center
16:22 31.7369 -85.8728 185° South 277 319 17,900  Climbing Jacksonville Center
16:23 31.6636 -85.8800 185° South 277 319 17,900  Level Jacksonville Center
16:24 31.5883 -85.8900 186° South 277 319 17,900  Level Jacksonville Center
16:25 31.5150 -85.9047 190° South 277 319 17,900  Level Jacksonville Center
16:26 31.4414 -85.9192 190° South 277 319 17,900 -120 Level Jacksonville Center
16:27 31.3661 -85.9314 188° South 277 319 17,700 -600 Descending Jacksonville Center
16:27 31.3014 -85.9317 180° South 268 308 16,900 -900 Descending Jacksonville Center
16:28 31.2489 -85.9350 183° South 232 267 16,300 -960 Descending Jacksonville Center
16:29 31.1778 -85.9400 183° South 248 285 15,200 -1,020 Descending Jacksonville Center
16:30 31.1008 -85.9375 178° South 265 305 14,300 -780 Descending Jacksonville Center
16:31 31.0364 -85.9256 171° South 246 283 13,700 -900 Descending Jacksonville Center
16:33 30.9492 -85.9058 169° South 241 277 12,200 -1,560 Descending Jacksonville Center
16:34 30.8806 -85.8892 168° South 241 277 10,100 -2,220 Descending Jacksonville Center
16:35 30.8056 -85.8772 172° South 254 292 7,800 -2,100 Descending Jacksonville Center
16:36 30.7328 -85.8700 175° South 260 299 5,900 -1,860 Descending Jacksonville Center
16:37 30.6619 -85.8631 175° South 260 299 4,100 -1,200 Descending Jacksonville Center
16:38 30.5992 -85.8731 188° South 249 287 3,500 -600 Descending Jacksonville Center
16:39 30.5367 -85.8686 176° South 237 273 2,900 -600 Descending Jacksonville Center
16:40 30.4847 -85.8503 163° South 217 250 2,300 -660 Descending Jacksonville Center
16:41 30.4414 -85.8319 160° South 190 219 1,600 -780 Descending Jacksonville Center
16:42 30.4022 -85.8164 161° South 170 196 800 -660 Descending Jacksonville Center
16:43 30.3753 -85.8033 157° South 146 168 300 -540 Descending Jacksonville Center
16:45 30.3582 -85.7956 171° South  Level Estimated